[[{"header":{"parameterUnit":"m.s-1","parameterCategory":1,"la1":30.2991,"la2":30.254,"lo1":-89.0895,"lo2":-89.0444,"dx":0.0017,"dy":0.0017,"nx":28,"ny":28,"refTime":"2022-12-02T09:00:00:Z","depth":0,"parameterNumber":2,"parameterNumberName":"U-component_of_WINDS"},"data":[0,0,0,0,0,0,0,0,0,0,0,0,0,0,0,0,0,0,0,0,0,0,0,0,0,0,0,0,0,0,0,0,0,0,0,0,0,0,0,0,0,0,0,0,0,0,0,0,0,0,0,0,0,0,0,0,0,0,-4.8123,-4.8123,0,-4.8186,-4.8187,-4.8187,-4.8098,-4.8095,-4.8092,-4.8089,-4.8155,-4.816,-4.8165,0,0,0,0,0,0,0,0,0,0,0,0,0,-4.7926,-4.793,-4.8123,-4.8123,-4.8124,-4.8186,-4.8187,-4.8188,-4.8099,-4.8095,-4.8091,-4.8087,-4.8154,-4.8159,-4.8165,0,0,0,0,0,0,0,0,0,0,0,0,0,-4.8003,-4.7932,-4.8122,-4.8087,-4.8085,-4.8186,-4.8187,-4.8188,-4.81,-4.8095,-4.809,-4.8086,-4.8152,-4.8159,-4.8166,-4.8305,0,0,-4.8187,-4.819,0,0,0,0,0,0,0,0,-4.7999,-4.801,-4.8092,-4.809,-4.8087,-4.8129,-4.8142,-4.8227,-4.8101,-4.8094,-4.8089,-4.8083,-4.8151,-4.8157,-4.818,-4.8308,-4.8311,-4.8188,-4.8192,-4.8195,-4.8197,0,0,0,0,0,0,0,-4.7993,-4.8007,-4.8148,-4.8093,-4.809,-4.8069,-4.8074,-4.8157,-4.8148,-4.8094,-4.8088,-4.8097,-4.8148,-4.8173,-4.8181,-4.8312,-4.8188,-4.8194,-4.8199,-4.8201,-4.8557,-4.8562,0,0,0,0,0,0,-4.7992,-4.8003,-4.8146,-4.8149,-4.803,-4.8076,-4.8082,-4.8121,-4.8147,-4.8146,-4.8101,-4.8092,-4.8163,-4.8173,-4.8183,-4.8347,-4.8195,-4.8202,-4.8206,-4.8552,-4.8558,-4.8564,0,0,0,0,0,0,-4.7988,-4.8006,-4.8143,-4.8075,-4.809,-4.8085,-4.8128,-4.8124,-4.8149,-4.8152,-4.815,-4.8127,-4.816,-4.8173,-4.8275,-4.8348,-4.8205,-4.8212,-4.8546,-4.8554,-4.8561,-4.8676,0,0,0,0,0,0,-4.7983,-4.8005,-4.8057,-4.8076,-4.8094,-4.8234,-4.8133,-4.8129,-4.8161,-4.8151,-4.8176,-4.8176,-4.8157,-4.8265,-4.8282,-4.8355,-4.8217,-4.8539,-4.8549,-4.8558,-4.8666,-4.8687,-4.8705,0,0,0,0,0,-4.7976,-4.8087,-4.806,-4.8078,-4.816,-4.8238,-4.8249,-4.8224,-4.8167,-4.822,-4.8222,-4.8175,-4.8337,-4.8276,-4.8295,-4.8371,-4.8534,-4.8546,-4.8558,-4.8657,-4.8683,-4.8705,0,0,0,0,0,0,-4.8077,-4.8089,-4.8059,-4.818,-4.8209,-4.8223,-4.8288,-4.8252,-4.8298,-4.8287,-4.8255,-4.8261,-4.8371,-4.8381,-4.8313,-4.8507,-4.8426,-4.8442,-4.8496,-4.852,-4.854,-4.8534,-4.8223,0,0,0,0,0,-4.8113,-4.8175,-4.8183,-4.8289,-4.8305,-4.8295,-4.8328,-4.8307,-4.8336,-4.8347,-4.8357,-4.8387,-4.8444,-4.8483,-4.8536,-4.8667,-4.8672,-4.8729,-4.8749,-4.8765,-4.8779,-4.8849,-4.8874,-4.8602,-4.8602,-4.8602,0,0,-4.8188,-4.8203,-4.8244,-4.8309,-4.8329,-4.8395,-4.8305,-4.8379,-4.8427,-4.8359,-4.8455,-4.8464,-4.8495,-4.8613,-4.8665,-4.8625,-4.8855,-4.878,-4.8793,-4.8798,-4.8863,-4.8889,-4.8912,-4.861,-4.8609,-4.8607,0,0,-4.8359,-4.8376,-4.8466,-4.8488,-4.8519,-4.8512,-4.8534,-4.8554,-4.8557,-4.8653,-4.8603,-4.8661,-4.8761,-4.8786,-4.8811,-4.8993,-4.8951,-4.9011,-4.9113,-4.9182,-4.9203,-4.9222,-4.9286,-4.931,-4.9025,-4.9026,-4.9026,0,-4.8448,-4.8545,-4.8517,-4.8594,-4.8624,-4.8565,-4.8656,-4.8679,-4.8726,-4.8749,-4.8703,-4.8828,-4.8845,-4.8967,-4.9011,-4.9034,-4.9058,-4.9007,-4.9203,-4.9221,-4.9238,-4.9299,-4.9324,-4.9033,-4.9032,-4.9031,-4.903,0,-4.8653,-4.8721,-4.879,-4.8837,-4.8875,-4.8959,-4.8944,-4.8987,-4.8963,-4.896,-4.906,-4.9079,-4.9135,-4.9162,-4.914,-4.9282,-4.9256,-4.9207,-4.9126,-4.9272,-4.9328,-4.9351,-4.9043,-4.904,-4.9038,-4.9036,0,0,-4.8887,-4.8918,-4.8944,-4.8965,-4.8996,-4.9048,-4.9129,-4.9184,-4.922,-4.9256,-4.9323,-4.941,-4.9365,-4.9394,-4.9374,-4.9435,-4.9577,-4.9379,-4.9379,-4.9414,-4.9734,-4.977,-4.9797,-4.955,-4.9555,-4.9558,-4.9731,0,-4.9057,-4.9197,-4.9175,-4.931,-4.9373,-4.9319,-4.939,-4.9417,-4.9417,-4.9471,-4.9471,-4.9533,-4.947,-4.9487,-4.9544,-4.9548,-4.9641,-4.9535,-4.9613,-4.9616,-4.9605,-4.9827,-4.9865,-5.0027,-4.9753,-4.9757,-4.976,0,-4.9273,-4.9316,-4.9458,-4.9479,-4.9505,-4.9569,-4.9617,-4.9669,-4.9699,-4.9695,-4.9729,-4.9698,-4.978,-4.9698,-4.981,-4.9739,-4.977,-4.9776,-4.9782,-4.9787,-4.9696,-4.9837,-5.0078,-5.0102,-4.9795,-4.9792,-4.9789,0,-4.9429,-4.9522,-4.9619,-4.9638,-4.9666,-4.9712,-4.9726,-4.9751,-4.9786,-4.9828,-4.985,-4.9903,-4.9931,-4.9972,-4.9957,-4.9899,-5.0073,-4.9989,-5.0071,-5.0072,-5.0109,-5.0107,-5.0357,-5.0132,-5.0131,-5.0131,-5.013,0,-4.962,-4.9708,-4.9689,-4.9749,-4.9847,-4.9821,-4.9919,-4.9926,-4.9949,-5.001,-4.9967,-5.0024,-5.0,-5.0057,-5.0045,-5.014,-5.0154,-5.0153,-5.0149,-5.0156,-5.0156,-5.0175,-5.0163,-5.0137,-5.0136,-5.0135,-5.0133,0,-4.9809,-4.98,-4.9902,-4.992,-4.9927,-4.9998,-5.0014,-5.007,-5.0067,-5.0144,-5.0161,-5.0158,-5.0222,-5.0211,-5.0282,-5.0274,-5.0392,-5.0375,-5.0382,-5.0378,-5.046,-5.0452,-5.073,-5.0765,-5.0518,-5.052,-5.0522,0,-4.9931,-4.9998,-5.0023,-5.006,-5.0078,-5.0138,-5.0173,-5.0151,-5.0189,-5.0229,-5.028,-5.0341,-5.0387,-5.0493,-5.0497,-5.0551,-5.0534,-5.0628,-5.0542,-5.0547,-5.0534,-5.053,-5.0536,-5.0644,-5.0647,-5.065,-5.0651,0,-5.0148,-5.014,-5.0192,-5.0243,-5.0285,-5.0324,-5.0359,-5.0392,-5.0373,-5.0419,-5.0483,-5.052,-5.0593,-5.0653,-5.0704,-5.0718,-5.0683,-5.0679,-5.07,-5.0708,-5.0709,-5.0709,-5.0427,-5.0672,-5.067,-5.0669,-5.0667,-5.0667,-5.0306,-5.0363,-5.039,-5.0449,-5.0473,-5.0507,-5.0561,-5.0565,-5.0619,-5.0676,-5.066,-5.0734,-5.0763,-5.0827,-5.0848,-5.0906,-5.0871,-5.0902,-5.091,-5.0918,-5.0927,-5.0701,-5.0915,-5.0914,-5.0914,-5.0913,-5.0913,0,-5.052,-5.0535,-5.059,-5.064,-5.0687,-5.0649,-5.0686,-5.0727,-5.0793,-5.0823,-5.087,-5.0945,-5.1003,-5.1013,-5.1069,-5.1113,-5.1098,-5.1128,-5.1124,-5.1128,-5.0956,-5.0931,-5.114,-5.114,-5.114,-5.1139,-5.1139,-5.1139,-5.0637,-5.0731,-5.0727,-5.0833,-5.0847,-5.0919,-5.0943,-5.0974,-5.0998,-5.1083,-5.1131,-5.1137,-5.1159,-5.1216,-5.1269,-5.127,-5.1292,-5.1329,-5.1324,-5.1163,-5.114,-5.1118,-5.1095,-5.1334,-5.1335,-5.1491,-5.1492,-5.1493]},{"header":{"parameterUnit":"m.s-1","parameterCategory":1,"la1":30.2991,"la2":30.254,"lo1":-89.0895,"lo2":-89.0444,"dx":0.0017,"dy":0.0017,"nx":28,"ny":28,"refTime":"2022-12-02T09:00:00:Z","depth":0,"parameterNumber":3,"parameterNumberName":"V-component_of_WINDS"},"data":[0,0,0,0,0,0,0,0,0,0,0,0,0,0,0,0,0,0,0,0,0,0,0,0,0,0,0,0,0,0,0,0,0,0,0,0,0,0,0,0,0,0,0,0,0,0,0,0,0,0,0,0,0,0,0,0,0,0,-0.0375,-0.0374,0,-0.0319,-0.0318,-0.0318,-0.0257,-0.0257,-0.0256,-0.0255,-0.0198,-0.0198,-0.0197,0,0,0,0,0,0,0,0,0,0,0,0,0,-0.043,-0.0429,-0.0375,-0.0374,-0.0374,-0.0319,-0.0318,-0.0317,-0.0258,-0.0257,-0.0256,-0.0255,-0.0198,-0.0198,-0.0197,0,0,0,0,0,0,0,0,0,0,0,0,0,-0.0393,-0.0429,-0.0375,-0.0337,-0.0333,-0.0319,-0.0318,-0.0317,-0.0258,-0.0257,-0.0255,-0.0254,-0.0199,-0.0198,-0.0197,-0.0216,0,0,-0.0193,-0.0193,0,0,0,0,0,0,0,0,-0.0395,-0.0391,-0.0344,-0.034,-0.0335,-0.0294,-0.0317,-0.0283,-0.0258,-0.0287,-0.0255,-0.0253,-0.0231,-0.0227,-0.022,-0.0213,-0.0211,-0.0193,-0.0193,-0.0192,-0.0192,0,0,0,0,0,0,0,-0.0398,-0.0393,-0.0353,-0.0343,-0.0338,-0.0323,-0.0316,-0.031,-0.0267,-0.0284,-0.0279,-0.0274,-0.0229,-0.0221,-0.0218,-0.021,-0.0193,-0.0192,-0.0192,-0.0191,-0.0213,-0.0214,0,0,0,0,0,0,-0.0406,-0.0396,-0.0355,-0.0351,-0.0363,-0.0323,-0.0315,-0.0308,-0.0267,-0.0259,-0.0275,-0.0271,-0.0223,-0.0219,-0.0216,-0.0233,-0.0192,-0.0191,-0.0191,-0.0211,-0.0213,-0.0214,0,0,0,0,0,0,-0.0408,-0.0403,-0.0357,-0.0372,-0.0365,-0.0323,-0.0316,-0.0308,-0.03,-0.026,-0.0252,-0.0275,-0.0222,-0.0217,-0.0215,-0.023,-0.0191,-0.019,-0.021,-0.0212,-0.0214,-0.0269,0,0,0,0,0,0,-0.041,-0.0404,-0.0411,-0.0373,-0.0365,-0.0358,-0.0317,-0.0308,-0.0298,-0.0293,-0.0257,-0.025,-0.0221,-0.0217,-0.0214,-0.0228,-0.0189,-0.0208,-0.0211,-0.0213,-0.0266,-0.0273,-0.0279,0,0,0,0,0,-0.0412,-0.043,-0.0412,-0.0407,-0.0373,-0.0359,-0.0354,-0.032,-0.03,-0.0306,-0.028,-0.0251,-0.0229,-0.0218,-0.0214,-0.0228,-0.0207,-0.021,-0.0213,-0.0263,-0.0272,-0.0279,0,0,0,0,0,0,-0.0472,-0.0424,-0.0404,-0.041,-0.0389,-0.0349,-0.0356,-0.033,-0.0314,-0.031,-0.0268,-0.026,-0.0263,-0.0245,-0.0233,-0.0242,-0.0214,-0.0216,-0.0254,-0.0261,-0.0268,-0.0272,-0.0188,0,0,0,0,0,-0.0486,-0.0479,-0.0438,-0.0448,-0.0438,-0.0399,-0.0392,-0.0367,-0.0343,-0.0334,-0.0308,-0.0286,-0.0273,-0.0267,-0.0253,-0.0263,-0.0253,-0.027,-0.0277,-0.0282,-0.0284,-0.0286,-0.0292,-0.0223,-0.0223,-0.0223,0,0,-0.0515,-0.0488,-0.0487,-0.0459,-0.044,-0.0433,-0.0392,-0.0387,-0.0381,-0.0333,-0.0329,-0.0309,-0.0282,-0.0285,-0.0286,-0.0271,-0.0301,-0.0286,-0.029,-0.029,-0.0289,-0.0296,-0.0302,-0.0225,-0.0225,-0.0224,0,0,-0.0564,-0.0544,-0.0549,-0.0529,-0.05,-0.0474,-0.0475,-0.0438,-0.0423,-0.0418,-0.0381,-0.0373,-0.0354,-0.0335,-0.0323,-0.0363,-0.0335,-0.036,-0.0393,-0.0395,-0.04,-0.0405,-0.0417,-0.0422,-0.0362,-0.0362,-0.0362,0,-0.0604,-0.0593,-0.0555,-0.0551,-0.0539,-0.0494,-0.0498,-0.0482,-0.045,-0.0442,-0.0426,-0.0398,-0.0377,-0.0374,-0.0384,-0.0376,-0.0375,-0.0364,-0.0403,-0.0407,-0.041,-0.0422,-0.0427,-0.0365,-0.0365,-0.0365,-0.0364,0,-0.0642,-0.0634,-0.0642,-0.0611,-0.06,-0.06,-0.0561,-0.0555,-0.053,-0.0505,-0.0499,-0.0472,-0.0451,-0.0449,-0.0425,-0.0442,-0.0433,-0.041,-0.0381,-0.0421,-0.043,-0.0435,-0.037,-0.0368,-0.0368,-0.0367,0,0,-0.0729,-0.0675,-0.0678,-0.0663,-0.0626,-0.0619,-0.0617,-0.0596,-0.059,-0.0569,-0.0565,-0.0548,-0.0526,-0.0512,-0.0486,-0.0488,-0.0518,-0.0464,-0.0463,-0.0474,-0.0533,-0.0549,-0.0555,-0.05,-0.0501,-0.0501,-0.0534,0,-0.077,-0.0763,-0.0728,-0.0731,-0.0722,-0.0678,-0.0676,-0.0653,-0.0629,-0.0617,-0.0591,-0.0579,-0.0552,-0.0543,-0.0542,-0.0515,-0.0529,-0.0512,-0.0495,-0.0494,-0.0502,-0.056,-0.0579,-0.0612,-0.0538,-0.0539,-0.0539,0,-0.0819,-0.0799,-0.0801,-0.0762,-0.0757,-0.0756,-0.0732,-0.0722,-0.0695,-0.0677,-0.0661,-0.063,-0.0624,-0.0597,-0.0587,-0.0576,-0.0566,-0.0551,-0.0552,-0.0548,-0.0519,-0.0557,-0.0621,-0.0626,-0.0545,-0.0545,-0.0544,0,-0.088,-0.0854,-0.0851,-0.0839,-0.0795,-0.0794,-0.0776,-0.0747,-0.0735,-0.0715,-0.0707,-0.0686,-0.0675,-0.0659,-0.0623,-0.0607,-0.0616,-0.0587,-0.06,-0.0601,-0.0604,-0.0604,-0.0666,-0.06,-0.06,-0.06,-0.06,0,-0.0929,-0.0932,-0.0878,-0.0876,-0.0877,-0.0835,-0.0837,-0.0814,-0.0788,-0.078,-0.0742,-0.0735,-0.0689,-0.0677,-0.0649,-0.0644,-0.0639,-0.0624,-0.0616,-0.0627,-0.0628,-0.062,-0.0616,-0.0601,-0.0601,-0.0601,-0.06,0,-0.0998,-0.0962,-0.0955,-0.0913,-0.0902,-0.0905,-0.0868,-0.0864,-0.0837,-0.0827,-0.0823,-0.0781,-0.0764,-0.0727,-0.0701,-0.0682,-0.0682,-0.067,-0.0692,-0.0687,-0.0702,-0.07,-0.076,-0.0764,-0.0697,-0.0697,-0.0698,0,-0.1032,-0.1032,-0.0989,-0.0981,-0.0963,-0.0951,-0.0939,-0.0898,-0.0887,-0.0853,-0.0853,-0.0833,-0.0815,-0.079,-0.0757,-0.0736,-0.0721,-0.0743,-0.0718,-0.0728,-0.072,-0.072,-0.0718,-0.0749,-0.075,-0.0751,-0.0751,0,-0.1095,-0.1076,-0.106,-0.1037,-0.1024,-0.1004,-0.0982,-0.0978,-0.0931,-0.092,-0.0902,-0.0888,-0.086,-0.084,-0.0814,-0.0793,-0.0764,-0.0759,-0.0761,-0.0771,-0.0784,-0.0775,-0.0706,-0.0758,-0.0758,-0.0757,-0.0757,-0.0756,-0.1145,-0.1143,-0.1112,-0.1095,-0.1074,-0.1054,-0.1047,-0.1019,-0.1003,-0.0977,-0.0953,-0.0937,-0.0906,-0.0868,-0.0849,-0.0835,-0.0821,-0.0824,-0.0824,-0.0825,-0.0829,-0.0787,-0.083,-0.083,-0.083,-0.083,-0.083,0,-0.1205,-0.1182,-0.1167,-0.1137,-0.1123,-0.1096,-0.107,-0.106,-0.1046,-0.102,-0.1003,-0.0981,-0.0961,-0.0925,-0.0901,-0.0897,-0.0883,-0.0892,-0.0891,-0.0887,-0.0844,-0.0844,-0.0904,-0.0904,-0.0904,-0.0904,-0.0904,-0.0904,-0.1235,-0.1228,-0.1206,-0.1188,-0.1165,-0.1149,-0.1136,-0.1116,-0.1095,-0.1073,-0.1055,-0.1032,-0.1002,-0.0975,-0.0955,-0.0945,-0.0937,-0.0951,-0.0936,-0.0897,-0.089,-0.0883,-0.0883,-0.095,-0.095,-0.0979,-0.098,-0.098]}]]